Location: Newark
(48.5667°N, 7.8167°E)
Time: 00:05:06
(UTC+00:00)

X-37B - Visible Passes

Search period start: 01 August 2021 00:00
Search period end: 11 August 2021 00:00
Orbit: 383 x 392 km, 45.0° (Epoch: 01 July)

Date Brightness Start Highest point End Pass type
(mag) Time Alt. Az. Time Alt. Az. Time Alt. Az.
02 Aug 3.0 02:35:26 10° S 02:36:34 12° SSE 02:37:54 10° SE visible
03 Aug 2.1 03:11:51 11° SW 03:14:23 25° SSE 03:17:06 10° ESE visible
04 Aug 2.4 02:15:59 18° SSE 02:16:13 18° SSE 02:18:30 10° ESE visible
05 Aug 1.6 02:52:22 19° SW 02:54:07 33° SSE 02:57:03 10° E visible
06 Aug 2.1 01:56:29 24° SE 01:56:29 24° SE 01:58:37 10° ESE visible
06 Aug 1.1 03:29:07 10° WSW 03:32:11 44° S 03:35:15 10° ESE visible
07 Aug 1.2 02:32:54 30° SW 02:33:55 40° S 02:36:56 10° E visible
08 Aug 2.5 01:37:06 22° ESE 01:37:06 22° ESE 01:38:34 10° E visible
08 Aug 1.1 03:09:22 13° WSW 03:11:59 43° S 03:15:02 10° ESE visible
09 Aug 0.9 02:13:38 43° S 02:13:42 44° S 02:16:46 10° ESE visible
10 Aug 3.3 01:18:00 13° ESE 01:18:00 13° ESE 01:18:26 10° E visible
10 Aug 1.2 02:50:18 23° WSW 02:51:47 37° S 02:54:46 10° ESE visible
